Grizzly Air Cargo 5370


PAKN
King Salmon Airport
King Salmon, Alaska, US
PACD
Cold Bay Airport
Cold Bay, Alaska, US

Activity Log

Date Flight Route Aircraft Duration
No Flights Yet

Route Details

Aircraft Information
Primary: Saab 340AF
Backup: Not Available
Route Data
Distance: 302nm
Sched. Duration: 1h 50m
Avg. Duration: 0h 00m (-150m)
Times Flown: 0
Recm'd Route: AKN J115 CDB
Planned Altitude: 24,000ft
Origin Wx: PAKN 190854Z 24013G20KT 10SM FEW016 SCT075 SCT120 M07/M09 A2953 RMK AO2 SLP000 T10671094 400111072 52059
Dest. Wx: PACD 190853Z AUTO 15012KT 10SM OVC100 M04/M08 A2963 RMK AO2 SLP036 T10391083 410281094 58014 TSNO $
Notes:

Financial History
Total Freight: 0lbs
Average Load: 0lbs/flt
Fuel Used: 0lbs
Avg. Fuel Used: 0lbs/flt
Fuel Expense: $0
Avg. Fuel Expense: $0
Avg. Fuel Cost: $0/lbs
Total Gross Income: $0
Pilot Pay: $0
Total Expenses: $0
Total Revenue: $0
Average Revenue: $0